Starlink 35804

operational
NORAD ID: 66356 Int'l Des: 2025-254 Owner: SPXS Country: US Constellation: starlink
LEOCIRCULAR

About Starlink 35804

Description loading...

Live Position

Loading 3D Globe...

Upcoming Passes

Altitude History

Altitude vs Time

uPlot chart will show altitude changes over time

Two-Line Element Set

1 66356C 25254Z 25311.11298611 .00529830 00000+0 78160-3 0 3114
2 66356 53.1599 93.7471 0009221 262.5483 94.4210 16.03637934 18
Epoch: Nov 7, 2025 • Age: 18 hours

Current Status

Altitude 265.3 km
Velocity 7.75 km/s
Sub-Earth Point 21.20°N, 68.34°W
Launch Date Nov 6, 2025
Age 1 days
Type internet

Technical Details

Classification Payload
Mass 575.00 kg
Dry Mass 530.00 kg
Total Mass 575.00 kg
Length 0.30 m
Diameter 4.10 m
Span 29.00 m
Shape Box + pan
Manufacturer SPXS
Bus Type Starlink V2MO
Phase Status In Orbit
Owner/State SPXS/US

Large Constellations

Loading constellations...